Simultaneous Nadir Overpasses (SNOs) Predictions

Prediction of SNOs between GOES-16 and FY3D Satellite Orbit:

Table of predicted SNOs for the next 14.0 days since TLE Epoch: 6/6/2020
Index Date Time (GOES-16) GOES-16 Lat,Lon FY3D Lat,Lon Distance(km) Time Diff (sec)
1 06/06/2020 06:24:32 -0.00, -75.16 -0.31, -73.92 141.54 80
2 06/07/2020 18:46:10 0.00, -75.16 -0.92, -79.14 454.74 80
3 06/08/2020 18:29:55 0.01, -75.16 0.15, -74.57 67.29 80
4 06/11/2020 06:32:27 -0.01, -75.17 0.03, -75.17 3.55 80
5 06/13/2020 18:32:31 0.00, -75.19 -0.12, -75.83 73.28 80
6 06/14/2020 18:16:15 0.00, -75.20 0.88, -71.25 449.98 80
7 06/16/2020 06:37:44 -0.00, -75.22 0.30, -76.44 139.42 80
8 06/17/2020 06:16:09 -0.00, -75.23 -0.77, -71.87 383.94 80
9 06/18/2020 18:37:48 0.00, -75.25 -0.39, -77.10 209.93 80
10 06/19/2020 18:21:31 -0.00, -75.27 0.62, -72.52 313.84 80




NCC Satellite Simultaneous Nadir Overpasses (SNOs) Prediction Service
